Regional Weather Roundup
Issued by NWS Cleveland, OH

Home | Current Version | Previous Version | Text Only | Print | Product List | Glossary Off
Versions: 1 2 3 4 5 6 7 8 9 10 11 12 13 14 15 16 17 18 19 20 21 22 23 24 25 26 27 28 29 30 31 32 33 34 35 36 37 38 39 40 41 42 43 44 45 46 47 48 49 50

000
ASUS41 KCLE 250010
RWRCLE
OHIO REGIONAL WEATHER ROUNDUP
NATIONAL WEATHER SERVICE CLEVELAND, OH
800 PM EDT MON JUL 24 2017

NOTE: "FAIR" INDICATES FEW OR NO CLOUDS BELOW 12,000 FEET WITH NO
SIGNIFICANT WEATHER AND/OR OBSTRUCTIONS TO VISIBILITY.

OHZ001>008-015>018-024>027-034-035-043-044-250100-
   NORTHWEST OHIO

CITY           SKY/WX    TMP DP  RH WIND       PRES   REMARKS
DEFIANCE       CLEAR    N/A N/A N/A N5        30.05R
FINDLAY        CLEAR     71  57  61 N10       30.03S
TOLEDO EXPRESS CLEAR     72  57  59 N7        30.03S
TOLEDO EXEC    CLEAR     73  58  59 N6        30.04R
LIMA           PTCLDY    68  59  73 N10       30.04R
$$

OHZ009>014-019>023-028>033-038-089-250100-
   NORTHEAST OHIO

CITY           SKY/WX    TMP DP  RH WIND       PRES   REMARKS
CLE-HOPKINS    MOCLDY    71  56  58 N14G22    30.03R
CLE-LAKEFRONT  PTCLDY    70  55  59 NW22G31   30.00R
CUY CO. ARPT   MOCLDY    70  57  64 N16       30.01R
LORAIN-ELYRIA  CLOUDY    68  53  58 N7        30.03R
ASHTABULA      CLOUDY    65  57  75 NW10G21   29.99R
AKRON-CANTON   MOCLDY    68  57  68 NW8       30.01R
WOOSTER        MOCLDY    67  59  75 N8        30.03R
MANSFIELD      PTCLDY    67  59  75 N9        30.04R
YOUNGSTOWN     MOCLDY    66  56  70 NW13      29.99R
$$

OHZ042-051>053-060>062-070>072-077>081-250100-
  SOUTHWEST OHIO

CITY           SKY/WX    TMP DP  RH WIND       PRES   REMARKS
CINC-COVINGTON PTCLDY    80  68  66 N8        29.99R
CINC-LUNKEN    PTCLDY    80  67  64 N9        29.98R
HAMILTON       CLEAR     78  65  63 N10       30.00R
DAYTON         PTCLDY    73  58  59 N10       30.03R
WRIGHT-PAT AFB CLEAR     74  61  63 N8        30.02R
DAYTON GENERAL CLEAR     75  62  64 NE10      30.01R
WILMINGTON     CLEAR     75  65  70 N9        30.00R
$$

OHZ036-037-039>041-045>050-054>059-063>069-073>076-082>088-250100-
  CENTRAL AND SOUTHEAST OHIO

CITY           SKY/WX    TMP DP  RH WIND       PRES   REMARKS
COLUMBUS       PTCLDY    72  58  61 N12       30.01R
OSU AIRPORT    PTCLDY    71  60  68 N12       30.02R
BOLTON FIELD   PTCLDY    72  60  64 N9        30.02R
RICKENBACK AFB CLEAR     73  60  62 N13       30.00R
NEWARK         MOCLDY    73  60  63 VRB6      30.00R
MARION         PTCLDY    69  58  67 N10       30.04R
LANCASTER      CLEAR     73  61  65 N9        30.01R
ZANESVILLE     MOCLDY    74  61  63 N8        30.00R
NEW PHILLY     NOT AVBL
$$




USA.gov is the U.S. government's official web portal to all federal, state and local government web resources and services.